Year,Month,Day,Hour,Minute,Value (Times are PST for windgust in km/hr)
2018,12,16,00,00,82.10
2018,12,16,00,01,78.80
2018,12,16,00,02,78.80
2018,12,16,00,03,86.90
2018,12,16,00,04,85.30
2018,12,16,00,05,88.50
2018,12,16,00,06,74.00
2018,12,16,00,07,82.10
2018,12,16,00,08,80.50
2018,12,16,00,09,85.30
2018,12,16,00,10,77.30
2018,12,16,00,11,80.50
2018,12,16,00,12,82.10
2018,12,16,00,13,80.50
2018,12,16,00,14,82.10
2018,12,16,00,15,83.70
2018,12,16,00,16,70.80
2018,12,16,00,17,80.50
2018,12,16,00,18,88.50
2018,12,16,00,19,86.90
2018,12,16,00,20,74.00
2018,12,16,00,21,75.60
2018,12,16,00,22,80.50
2018,12,16,00,23,75.60
2018,12,16,00,24,80.50
2018,12,16,00,25,85.30
2018,12,16,00,26,78.80
2018,12,16,00,27,82.10
2018,12,16,00,28,88.50
2018,12,16,00,29,96.60
2018,12,16,00,30,83.70
2018,12,16,00,31,64.40
2018,12,16,00,32,57.90
2018,12,16,00,33,78.80
2018,12,16,00,34,85.30
2018,12,16,00,35,62.70
2018,12,16,00,36,69.20
2018,12,16,00,37,80.50
2018,12,16,00,38,78.80
2018,12,16,00,39,69.20
2018,12,16,00,40,70.80
2018,12,16,00,41,77.30
2018,12,16,00,42,75.60
2018,12,16,00,43,74.00
2018,12,16,00,44,72.40
2018,12,16,00,45,83.70
2018,12,16,00,46,75.60
2018,12,16,00,47,62.70
2018,12,16,00,48,74.00
2018,12,16,00,49,75.60
2018,12,16,00,50,78.80
2018,12,16,00,51,77.30
2018,12,16,00,52,72.40
2018,12,16,00,53,77.30
2018,12,16,00,54,70.80
2018,12,16,00,55,72.40
2018,12,16,00,56,78.80
2018,12,16,00,57,77.30
2018,12,16,00,58,78.80
2018,12,16,00,59,78.80
2018,12,16,01,00,88.50
2018,12,16,01,01,83.70
2018,12,16,01,02,75.60
2018,12,16,01,03,82.10
2018,12,16,01,04,85.30
2018,12,16,01,05,82.10
2018,12,16,01,06,78.80
2018,12,16,01,07,90.10
2018,12,16,01,08,82.10
2018,12,16,01,09,75.60
2018,12,16,01,10,86.90
2018,12,16,01,11,77.30
2018,12,16,01,12,83.70
2018,12,16,01,13,77.30
2018,12,16,01,14,80.50
2018,12,16,01,15,77.30
2018,12,16,01,16,77.30
2018,12,16,01,17,74.00
2018,12,16,01,18,72.40
2018,12,16,01,19,77.30
2018,12,16,01,20,78.80
2018,12,16,01,21,72.40
2018,12,16,01,22,74.00
2018,12,16,01,23,72.40
2018,12,16,01,24,70.80
2018,12,16,01,25,82.10
2018,12,16,01,26,80.50
2018,12,16,01,27,86.90
2018,12,16,01,28,85.30
2018,12,16,01,29,78.80
2018,12,16,01,30,77.30
2018,12,16,01,31,66.00
2018,12,16,01,32,74.00
2018,12,16,01,33,75.60
2018,12,16,01,34,74.00
2018,12,16,01,35,77.30
2018,12,16,01,36,77.30
2018,12,16,01,37,77.30
2018,12,16,01,38,78.80
2018,12,16,01,39,78.80
2018,12,16,01,40,77.30
2018,12,16,01,41,82.10
2018,12,16,01,42,75.60
2018,12,16,01,43,77.30
2018,12,16,01,44,82.10
2018,12,16,01,45,82.10
2018,12,16,01,46,78.80
2018,12,16,01,47,82.10
2018,12,16,01,48,75.60
2018,12,16,01,49,72.40
2018,12,16,01,50,83.70
2018,12,16,01,51,75.60
2018,12,16,01,52,85.30
2018,12,16,01,53,83.70
2018,12,16,01,54,90.10
2018,12,16,01,55,85.30
2018,12,16,01,56,86.90
2018,12,16,01,57,86.90
2018,12,16,01,58,83.70
2018,12,16,01,59,86.90
2018,12,16,02,00,86.90
2018,12,16,02,01,85.30
2018,12,16,02,02,96.60
2018,12,16,02,03,85.30
2018,12,16,02,04,85.30
2018,12,16,02,05,91.70
2018,12,16,02,06,93.30
2018,12,16,02,07,95.00
2018,12,16,02,08,88.50
2018,12,16,02,09,90.10
2018,12,16,02,10,103.00
2018,12,16,02,11,96.60
2018,12,16,02,12,82.10
2018,12,16,02,13,93.30
2018,12,16,02,14,91.70
2018,12,16,02,15,88.50
2018,12,16,02,16,93.30
2018,12,16,02,17,82.10
2018,12,16,02,18,86.90
2018,12,16,02,19,85.30
2018,12,16,02,20,86.90
2018,12,16,02,21,86.90
2018,12,16,02,22,82.10
2018,12,16,02,23,90.10
2018,12,16,02,24,78.80
2018,12,16,02,25,69.20
2018,12,16,02,26,75.60
2018,12,16,02,27,86.90
2018,12,16,02,28,93.30
2018,12,16,02,29,77.30
2018,12,16,02,30,93.30
2018,12,16,02,31,88.50
2018,12,16,02,32,78.80
2018,12,16,02,33,85.30
2018,12,16,02,34,91.70
2018,12,16,02,35,83.70
2018,12,16,02,36,82.10
2018,12,16,02,37,90.10
2018,12,16,02,38,85.30
2018,12,16,02,39,82.10
2018,12,16,02,40,86.90
2018,12,16,02,41,90.10
2018,12,16,02,42,86.90
2018,12,16,02,43,85.30
2018,12,16,02,44,82.10
2018,12,16,02,45,86.90
2018,12,16,02,46,85.30
2018,12,16,02,47,83.70
2018,12,16,02,48,77.30
2018,12,16,02,49,90.10
2018,12,16,02,50,88.50
2018,12,16,02,51,74.00
2018,12,16,02,52,70.80
2018,12,16,02,53,77.30
2018,12,16,02,54,75.60
2018,12,16,02,55,70.80
2018,12,16,02,56,86.90
2018,12,16,02,57,80.50
2018,12,16,02,58,77.30
2018,12,16,02,59,80.50
2018,12,16,03,00,85.30
2018,12,16,03,01,74.00
2018,12,16,03,02,85.30
2018,12,16,03,03,83.70
2018,12,16,03,04,82.10
2018,12,16,03,05,90.10
2018,12,16,03,06,86.90
2018,12,16,03,07,90.10
2018,12,16,03,08,86.90
2018,12,16,03,09,82.10
2018,12,16,03,10,78.80
2018,12,16,03,11,83.70
2018,12,16,03,12,85.30
2018,12,16,03,13,75.60
2018,12,16,03,14,80.50
2018,12,16,03,15,80.50
2018,12,16,03,16,74.00
2018,12,16,03,17,83.70
2018,12,16,03,18,83.70
2018,12,16,03,19,86.90
2018,12,16,03,20,80.50
2018,12,16,03,21,80.50
2018,12,16,03,22,85.30
2018,12,16,03,23,91.70
2018,12,16,03,24,82.10
2018,12,16,03,25,91.70
2018,12,16,03,26,91.70
2018,12,16,03,27,85.30
2018,12,16,03,28,93.30
2018,12,16,03,29,85.30
2018,12,16,03,30,82.10
2018,12,16,03,31,86.90
2018,12,16,03,32,86.90
2018,12,16,03,33,78.80
2018,12,16,03,34,74.00
2018,12,16,03,35,77.30
2018,12,16,03,36,91.70
2018,12,16,03,37,91.70
2018,12,16,03,38,70.80
2018,12,16,03,39,75.60
2018,12,16,03,40,67.60
2018,12,16,03,41,72.40
2018,12,16,03,42,75.60
2018,12,16,03,43,82.10
2018,12,16,03,44,78.80
2018,12,16,03,45,72.40
2018,12,16,03,46,78.80
2018,12,16,03,47,86.90
2018,12,16,03,48,85.30
2018,12,16,03,49,75.60
2018,12,16,03,50,72.40
2018,12,16,03,51,72.40
2018,12,16,03,52,82.10
2018,12,16,03,53,70.80
2018,12,16,03,54,77.30
2018,12,16,03,55,74.00
2018,12,16,03,56,70.80
2018,12,16,03,57,70.80
2018,12,16,03,58,75.60
2018,12,16,03,59,78.80
2018,12,16,04,00,83.70
2018,12,16,04,01,83.70
2018,12,16,04,02,82.10
2018,12,16,04,03,77.30
2018,12,16,04,04,99.80
2018,12,16,04,05,93.30
2018,12,16,04,06,82.10
2018,12,16,04,07,91.70
2018,12,16,04,08,86.90
2018,12,16,04,09,88.50
2018,12,16,04,10,88.50
2018,12,16,04,11,90.10
2018,12,16,04,12,86.90
2018,12,16,04,13,83.70
2018,12,16,04,14,91.70
2018,12,16,04,15,90.10
2018,12,16,04,16,88.50
2018,12,16,04,17,80.50
2018,12,16,04,18,93.30
2018,12,16,04,19,98.20
2018,12,16,04,20,96.60
2018,12,16,04,21,93.30
2018,12,16,04,22,91.70
2018,12,16,04,23,96.60
2018,12,16,04,24,90.10
2018,12,16,04,25,93.30
2018,12,16,04,26,83.70
2018,12,16,04,27,93.30
2018,12,16,04,28,93.30
2018,12,16,04,29,93.30
2018,12,16,04,30,85.30
2018,12,16,04,31,90.10
2018,12,16,04,32,93.30
2018,12,16,04,33,91.70
2018,12,16,04,34,91.70
2018,12,16,04,35,86.90
2018,12,16,04,36,80.50
2018,12,16,04,37,85.30
2018,12,16,04,38,98.20
2018,12,16,04,39,95.00
2018,12,16,04,40,83.70
2018,12,16,04,41,85.30
2018,12,16,04,42,83.70
2018,12,16,04,43,90.10
2018,12,16,04,44,91.70
2018,12,16,04,45,88.50
2018,12,16,04,46,83.70
2018,12,16,04,47,101.40
2018,12,16,04,48,98.20
2018,12,16,04,49,95.00
2018,12,16,04,50,91.70
2018,12,16,04,51,98.20
2018,12,16,04,52,101.40
2018,12,16,04,53,101.40
2018,12,16,04,54,98.20
2018,12,16,04,55,95.00
2018,12,16,04,56,95.00
2018,12,16,04,57,104.60
2018,12,16,04,58,86.90
2018,12,16,04,59,90.10
2018,12,16,05,00,83.70
2018,12,16,05,01,91.70
2018,12,16,05,02,86.90
2018,12,16,05,03,93.30
2018,12,16,05,04,86.90
2018,12,16,05,05,95.00
2018,12,16,05,06,91.70
2018,12,16,05,07,90.10
2018,12,16,05,08,80.50
2018,12,16,05,09,85.30
2018,12,16,05,10,83.70
2018,12,16,05,11,85.30
2018,12,16,05,12,80.50
2018,12,16,05,13,78.80
2018,12,16,05,14,80.50
2018,12,16,05,15,85.30
2018,12,16,05,16,85.30
2018,12,16,05,17,77.30
2018,12,16,05,18,77.30
2018,12,16,05,19,83.70
2018,12,16,05,20,90.10
2018,12,16,05,21,83.70
2018,12,16,05,22,85.30
2018,12,16,05,23,78.80
2018,12,16,05,24,91.70
2018,12,16,05,25,85.30
2018,12,16,05,26,77.30
2018,12,16,05,27,88.50
2018,12,16,05,28,86.90
2018,12,16,05,29,93.30
2018,12,16,05,30,82.10
2018,12,16,05,31,83.70
2018,12,16,05,32,88.50
2018,12,16,05,33,85.30
2018,12,16,05,34,82.10
2018,12,16,05,35,90.10
2018,12,16,05,36,90.10
2018,12,16,05,37,78.80
2018,12,16,05,38,83.70
2018,12,16,05,39,72.40
2018,12,16,05,40,74.00
2018,12,16,05,41,85.30
2018,12,16,05,42,82.10
2018,12,16,05,43,83.70
2018,12,16,05,44,78.80
2018,12,16,05,45,80.50
2018,12,16,05,46,78.80
2018,12,16,05,47,86.90
2018,12,16,05,48,82.10
2018,12,16,05,49,77.30
2018,12,16,05,50,85.30
2018,12,16,05,51,88.50
2018,12,16,05,52,88.50
2018,12,16,05,53,88.50
2018,12,16,05,54,86.90
2018,12,16,05,55,86.90
2018,12,16,05,56,86.90
2018,12,16,05,57,90.10
2018,12,16,05,58,86.90
2018,12,16,05,59,80.50
2018,12,16,06,00,86.90
2018,12,16,06,01,85.30
2018,12,16,06,02,80.50
2018,12,16,06,03,69.20
2018,12,16,06,04,74.00
2018,12,16,06,05,82.10
2018,12,16,06,06,64.40
2018,12,16,06,07,77.30
2018,12,16,06,08,90.10
2018,12,16,06,09,82.10
2018,12,16,06,10,77.30
2018,12,16,06,11,75.60
2018,12,16,06,12,80.50
2018,12,16,06,13,80.50
2018,12,16,06,14,75.60
2018,12,16,06,15,86.90
2018,12,16,06,16,88.50
2018,12,16,06,17,80.50
2018,12,16,06,18,72.40
2018,12,16,06,19,67.60
2018,12,16,06,20,74.00
2018,12,16,06,21,80.50
2018,12,16,06,22,74.00
2018,12,16,06,23,74.00
2018,12,16,06,24,67.60
2018,12,16,06,25,83.70
2018,12,16,06,26,80.50
2018,12,16,06,27,78.80
2018,12,16,06,28,72.40
2018,12,16,06,29,77.30
2018,12,16,06,30,78.80
2018,12,16,06,31,85.30
2018,12,16,06,32,67.60
2018,12,16,06,33,70.80
2018,12,16,06,34,106.20
2018,12,16,06,35,107.80
2018,12,16,06,36,85.30
2018,12,16,06,37,67.60
2018,12,16,06,38,91.70
2018,12,16,06,39,96.60
2018,12,16,06,40,53.10
2018,12,16,06,41,74.00
2018,12,16,06,42,78.80
2018,12,16,06,43,82.10
2018,12,16,06,44,77.30
2018,12,16,06,45,88.50
2018,12,16,06,46,75.60
2018,12,16,06,47,103.00
2018,12,16,06,48,98.20
2018,12,16,06,49,49.90
2018,12,16,06,50,38.60
2018,12,16,06,51,82.10
2018,12,16,06,52,96.60
2018,12,16,06,53,86.90
2018,12,16,06,54,62.70
2018,12,16,06,55,78.80
2018,12,16,06,56,99.80
2018,12,16,06,57,101.40
2018,12,16,06,58,72.40
2018,12,16,06,59,54.70
2018,12,16,07,00,82.10
2018,12,16,07,01,86.90
2018,12,16,07,02,91.70
2018,12,16,07,03,85.30
2018,12,16,07,04,56.30
2018,12,16,07,05,74.00
2018,12,16,07,06,86.90
2018,12,16,07,07,82.10
2018,12,16,07,08,72.40
2018,12,16,07,09,64.40
2018,12,16,07,10,74.00
2018,12,16,07,11,74.00
2018,12,16,07,12,62.70
2018,12,16,07,13,53.10
2018,12,16,07,14,66.00
2018,12,16,07,15,75.60
2018,12,16,07,16,72.40
2018,12,16,07,17,78.80
2018,12,16,07,18,72.40
2018,12,16,07,19,74.00
2018,12,16,07,20,70.80
2018,12,16,07,21,69.20
2018,12,16,07,22,61.20
2018,12,16,07,23,74.00
2018,12,16,07,24,78.80
2018,12,16,07,25,67.60
2018,12,16,07,26,70.80
2018,12,16,07,27,69.20
2018,12,16,07,28,70.80
2018,12,16,07,29,75.60
2018,12,16,07,30,77.30
2018,12,16,07,31,74.00
2018,12,16,07,32,83.70
2018,12,16,07,33,82.10
2018,12,16,07,34,70.80
2018,12,16,07,35,70.80
2018,12,16,07,36,83.70
2018,12,16,07,37,82.10
2018,12,16,07,38,72.40
2018,12,16,07,39,72.40
2018,12,16,07,40,80.50
2018,12,16,07,41,70.80
2018,12,16,07,42,85.30
2018,12,16,07,43,83.70
2018,12,16,07,44,74.00
2018,12,16,07,45,70.80
2018,12,16,07,46,80.50
2018,12,16,07,47,88.50
2018,12,16,07,48,91.70
2018,12,16,07,49,77.30
2018,12,16,07,50,72.40
2018,12,16,07,51,72.40
2018,12,16,07,52,72.40
2018,12,16,07,53,72.40
2018,12,16,07,54,72.40
2018,12,16,07,55,72.40
2018,12,16,07,56,72.40
2018,12,16,07,57,78.80
2018,12,16,07,58,78.80
2018,12,16,07,59,82.10
2018,12,16,08,00,77.30
2018,12,16,08,01,77.30
2018,12,16,08,02,72.40
2018,12,16,08,03,77.30
2018,12,16,08,04,78.80
2018,12,16,08,05,78.80
2018,12,16,08,06,78.80
2018,12,16,08,07,83.70
2018,12,16,08,08,70.80
2018,12,16,08,09,72.40
2018,12,16,08,10,77.30
2018,12,16,08,11,78.80
2018,12,16,08,12,75.60
2018,12,16,08,13,66.00
2018,12,16,08,14,75.60
2018,12,16,08,15,77.30
2018,12,16,08,16,74.00
2018,12,16,08,17,75.60
2018,12,16,08,18,70.80
2018,12,16,08,19,74.00
2018,12,16,08,20,64.40
2018,12,16,08,21,67.60
2018,12,16,08,22,66.00
2018,12,16,08,23,66.00
2018,12,16,08,24,69.20
2018,12,16,08,25,66.00
2018,12,16,08,26,67.60
2018,12,16,08,27,61.20
2018,12,16,08,28,64.40
2018,12,16,08,29,67.60
2018,12,16,08,30,72.40
2018,12,16,08,31,59.50
2018,12,16,08,32,59.50
2018,12,16,08,33,59.50
2018,12,16,08,34,59.50
2018,12,16,08,35,59.50
2018,12,16,08,36,62.70
2018,12,16,08,37,69.20
2018,12,16,08,38,67.60
2018,12,16,08,39,70.80
2018,12,16,08,40,69.20
2018,12,16,08,41,64.40
2018,12,16,08,42,69.20
2018,12,16,08,43,67.60
2018,12,16,08,44,67.60
2018,12,16,08,45,70.80
2018,12,16,08,46,85.30
2018,12,16,08,47,77.30
2018,12,16,08,48,78.80
2018,12,16,08,49,66.00
2018,12,16,08,50,70.80
2018,12,16,08,51,75.60
2018,12,16,08,52,62.70
2018,12,16,08,53,72.40
2018,12,16,08,54,74.00
2018,12,16,08,55,77.30
2018,12,16,08,56,75.60
2018,12,16,08,57,69.20
2018,12,16,08,58,80.50
2018,12,16,08,59,74.00
2018,12,16,09,00,70.80
2018,12,16,09,01,77.30
2018,12,16,09,02,72.40
2018,12,16,09,03,78.80
2018,12,16,09,04,83.70
2018,12,16,09,05,66.00
2018,12,16,09,06,72.40
2018,12,16,09,07,72.40
2018,12,16,09,08,69.20
2018,12,16,09,09,67.60
2018,12,16,09,10,78.80
2018,12,16,09,11,75.60
2018,12,16,09,12,74.00
2018,12,16,09,13,77.30
2018,12,16,09,14,74.00
2018,12,16,09,15,77.30
2018,12,16,09,16,74.00
2018,12,16,09,17,74.00
2018,12,16,09,18,77.30
2018,12,16,09,19,80.50
2018,12,16,09,20,82.10
2018,12,16,09,21,77.30
2018,12,16,09,22,77.30
2018,12,16,09,23,69.20
2018,12,16,09,24,72.40
2018,12,16,09,25,77.30
2018,12,16,09,26,70.80
2018,12,16,09,27,82.10
2018,12,16,09,28,75.60
2018,12,16,09,29,74.00
2018,12,16,09,30,75.60
2018,12,16,09,31,70.80
2018,12,16,09,32,69.20
2018,12,16,09,33,69.20
2018,12,16,09,34,64.40
2018,12,16,09,35,64.40
2018,12,16,09,36,66.00
2018,12,16,09,37,69.20
2018,12,16,09,38,64.40
2018,12,16,09,39,72.40
2018,12,16,09,40,66.00
2018,12,16,09,41,61.20
2018,12,16,09,42,62.70
2018,12,16,09,43,66.00
2018,12,16,09,44,62.70
2018,12,16,09,45,62.70
2018,12,16,09,46,66.00
2018,12,16,09,47,64.40
2018,12,16,09,48,64.40
2018,12,16,09,49,62.70
2018,12,16,09,50,69.20
2018,12,16,09,51,69.20
2018,12,16,09,52,67.60
2018,12,16,09,53,57.90
2018,12,16,09,54,53.10
2018,12,16,09,55,53.10
2018,12,16,09,56,53.10
2018,12,16,09,57,53.10
2018,12,16,09,58,53.10
2018,12,16,09,59,53.10
2018,12,16,10,00,53.10
2018,12,16,10,01,53.10
2018,12,16,10,02,53.10
2018,12,16,10,03,53.10
2018,12,16,10,19,51.50
2018,12,16,10,20,54.70
2018,12,16,10,21,59.50
2018,12,16,10,22,62.70
2018,12,16,10,23,62.70
2018,12,16,10,24,61.20
2018,12,16,10,25,59.50
2018,12,16,10,26,66.00
2018,12,16,10,27,66.00
2018,12,16,10,28,62.70
2018,12,16,10,29,61.20
2018,12,16,10,30,57.90
2018,12,16,10,31,61.20
2018,12,16,10,32,57.90
2018,12,16,10,33,54.70
2018,12,16,10,34,57.90
2018,12,16,10,35,61.20
2018,12,16,10,36,61.20
2018,12,16,10,37,59.50
2018,12,16,10,38,54.70
2018,12,16,10,39,53.10
2018,12,16,10,40,51.50
2018,12,16,10,41,48.30
2018,12,16,10,42,49.90
2018,12,16,10,43,49.90
2018,12,16,10,44,56.30
2018,12,16,10,45,54.70
2018,12,16,10,46,53.10
2018,12,16,10,47,54.70
2018,12,16,10,48,56.30
2018,12,16,10,49,49.90
2018,12,16,10,50,48.30
2018,12,16,10,51,51.50
2018,12,16,10,52,48.30
2018,12,16,10,53,51.50
2018,12,16,10,54,51.50
2018,12,16,10,55,51.50
2018,12,16,10,56,48.30
2018,12,16,10,57,46.70
2018,12,16,10,58,46.70
2018,12,16,10,59,56.30
2018,12,16,11,00,53.10
2018,12,16,11,01,49.90
2018,12,16,11,02,53.10
2018,12,16,11,03,48.30
2018,12,16,11,04,51.50
2018,12,16,11,05,48.30
2018,12,16,11,06,45.10
2018,12,16,11,07,49.90
2018,12,16,11,08,48.30
2018,12,16,11,09,48.30
2018,12,16,11,10,48.30
2018,12,16,11,11,49.90
2018,12,16,11,12,51.50
2018,12,16,11,13,49.90
2018,12,16,11,14,48.30
2018,12,16,11,15,46.70
2018,12,16,11,16,54.70
2018,12,16,11,17,51.50
2018,12,16,11,18,38.60
2018,12,16,11,19,40.20
2018,12,16,11,20,45.10
2018,12,16,11,21,45.10
2018,12,16,11,22,38.60
2018,12,16,11,23,40.20
2018,12,16,11,24,43.50
2018,12,16,11,25,45.10
2018,12,16,11,26,41.80
2018,12,16,11,27,41.80
2018,12,16,11,28,48.30
2018,12,16,11,29,46.70
2018,12,16,11,30,53.10
2018,12,16,11,31,53.10
2018,12,16,11,32,51.50
2018,12,16,11,33,48.30
2018,12,16,11,34,46.70
2018,12,16,11,35,48.30
2018,12,16,11,36,51.50
2018,12,16,11,37,49.90
2018,12,16,11,38,46.70
2018,12,16,11,39,43.50
2018,12,16,11,40,49.90
2018,12,16,11,41,49.90
2018,12,16,11,42,49.90
2018,12,16,11,43,46.70
2018,12,16,11,44,38.60
2018,12,16,11,45,49.90
2018,12,16,11,46,49.90
2018,12,16,11,47,46.70
2018,12,16,11,48,37.00
2018,12,16,11,49,29.00
2018,12,16,11,50,32.20
2018,12,16,11,51,37.00
2018,12,16,11,52,38.60
2018,12,16,11,53,33.80
2018,12,16,11,54,41.80
2018,12,16,11,55,43.50
2018,12,16,11,56,38.60
2018,12,16,11,57,37.00
2018,12,16,11,58,38.60
2018,12,16,11,59,40.20
2018,12,16,12,00,43.50
2018,12,16,12,01,43.50
2018,12,16,12,02,41.80
2018,12,16,12,03,38.60
2018,12,16,12,04,48.30
2018,12,16,12,05,41.80
2018,12,16,12,06,38.60
2018,12,16,12,07,37.00
2018,12,16,12,08,38.60
2018,12,16,12,09,38.60
2018,12,16,12,10,38.60
2018,12,16,12,11,37.00
2018,12,16,12,12,38.60
2018,12,16,12,13,40.20
2018,12,16,12,14,37.00
2018,12,16,12,15,37.00
2018,12,16,12,16,37.00
2018,12,16,12,17,37.00
2018,12,16,12,18,37.00
2018,12,16,12,19,40.20
2018,12,16,12,20,38.60
2018,12,16,12,21,35.40
2018,12,16,12,22,38.60
2018,12,16,12,23,33.80
2018,12,16,12,24,37.00
2018,12,16,12,25,40.20
2018,12,16,12,26,37.00
2018,12,16,12,27,37.00
2018,12,16,12,28,35.40
2018,12,16,12,29,35.40
2018,12,16,12,30,38.60
2018,12,16,12,31,40.20
2018,12,16,12,32,38.60
2018,12,16,12,33,37.00
2018,12,16,12,34,41.80
2018,12,16,12,35,37.00
2018,12,16,12,36,38.60
2018,12,16,12,37,37.00
2018,12,16,12,38,37.00
2018,12,16,12,39,38.60
2018,12,16,12,40,40.20
2018,12,16,12,41,35.40
2018,12,16,12,42,33.80
2018,12,16,12,43,38.60
2018,12,16,12,44,38.60
2018,12,16,12,45,37.00
2018,12,16,12,46,35.40
2018,12,16,12,47,38.60
2018,12,16,12,48,35.40
2018,12,16,12,49,38.60
2018,12,16,12,50,37.00
2018,12,16,12,51,37.00
2018,12,16,12,52,33.80
2018,12,16,12,53,33.80
2018,12,16,12,54,35.40
2018,12,16,12,55,37.00
2018,12,16,12,56,37.00
2018,12,16,12,57,38.60
2018,12,16,12,58,37.00
2018,12,16,12,59,38.60
2018,12,16,13,00,40.20
2018,12,16,13,01,38.60
2018,12,16,13,02,38.60
2018,12,16,13,03,40.20
2018,12,16,13,04,37.00
2018,12,16,13,05,38.60
2018,12,16,13,06,38.60
2018,12,16,13,07,40.20
2018,12,16,13,08,41.80
2018,12,16,13,09,43.50
2018,12,16,13,10,41.80
2018,12,16,13,11,43.50
2018,12,16,13,12,43.50
2018,12,16,13,13,43.50
2018,12,16,13,14,38.60
2018,12,16,13,15,41.80
2018,12,16,13,16,41.80
2018,12,16,13,17,43.50
2018,12,16,13,18,40.20
2018,12,16,13,19,41.80
2018,12,16,13,20,38.60
2018,12,16,13,21,40.20
2018,12,16,13,22,40.20
2018,12,16,13,23,37.00
2018,12,16,13,24,37.00
2018,12,16,13,25,35.40
2018,12,16,13,26,35.40
2018,12,16,13,27,37.00
2018,12,16,13,28,37.00
2018,12,16,13,29,38.60
2018,12,16,13,30,37.00
2018,12,16,13,31,37.00
2018,12,16,13,32,35.40
2018,12,16,13,33,35.40
2018,12,16,13,34,38.60
2018,12,16,13,35,38.60
2018,12,16,13,36,40.20
2018,12,16,13,37,38.60
2018,12,16,13,38,41.80
2018,12,16,13,39,40.20
2018,12,16,13,40,43.50
2018,12,16,13,41,43.50
2018,12,16,13,42,41.80
2018,12,16,13,43,41.80
2018,12,16,13,44,40.20
2018,12,16,13,45,38.60
2018,12,16,13,46,37.00
2018,12,16,13,47,38.60
2018,12,16,13,48,37.00
2018,12,16,13,49,35.40
2018,12,16,13,50,37.00
2018,12,16,13,51,35.40
2018,12,16,13,52,35.40
2018,12,16,13,53,33.80
2018,12,16,13,54,32.20
2018,12,16,13,55,29.00
2018,12,16,13,56,29.00
2018,12,16,13,57,29.00
2018,12,16,13,58,25.70
2018,12,16,13,59,19.30
2018,12,16,14,00,20.90
2018,12,16,14,01,22.50
2018,12,16,14,02,17.70
2018,12,16,14,03,14.50
2018,12,16,14,04,12.90
2018,12,16,14,05,12.90
2018,12,16,14,06,14.50
2018,12,16,14,07,16.10
2018,12,16,14,08,16.10
2018,12,16,14,09,14.50
2018,12,16,14,10,16.10
2018,12,16,14,11,17.70
2018,12,16,14,12,17.70
2018,12,16,14,13,17.70
2018,12,16,14,14,16.10
2018,12,16,14,15,14.50
2018,12,16,14,16,14.50
2018,12,16,14,17,16.10
2018,12,16,14,18,14.50
2018,12,16,14,19,16.10
2018,12,16,14,20,16.10
2018,12,16,14,21,16.10
2018,12,16,14,22,12.90
2018,12,16,14,23,11.30
2018,12,16,14,24,12.90
2018,12,16,14,25,12.90
2018,12,16,14,26,12.90
2018,12,16,14,27,12.90
2018,12,16,14,28,12.90
2018,12,16,14,29,12.90
2018,12,16,14,30,14.50
2018,12,16,14,31,14.50
2018,12,16,14,32,14.50
2018,12,16,14,33,14.50
2018,12,16,14,34,12.90
2018,12,16,14,35,12.90
2018,12,16,14,36,12.90
2018,12,16,14,37,9.60
2018,12,16,14,38,9.60
2018,12,16,14,39,9.60
2018,12,16,14,40,9.60
2018,12,16,14,41,11.30
2018,12,16,14,42,8.10
2018,12,16,14,43,9.60
2018,12,16,14,44,9.60
2018,12,16,14,45,9.60
2018,12,16,14,46,9.60
2018,12,16,14,47,9.60
2018,12,16,14,48,9.60
2018,12,16,14,49,11.30
2018,12,16,14,50,11.30
2018,12,16,14,51,11.30
2018,12,16,14,52,11.30
2018,12,16,14,53,11.30
2018,12,16,14,54,12.90
2018,12,16,14,55,14.50
2018,12,16,14,56,14.50
2018,12,16,14,57,14.50
2018,12,16,14,58,16.10
2018,12,16,14,59,17.70
2018,12,16,15,00,19.30
2018,12,16,15,01,22.50
2018,12,16,15,02,20.90
2018,12,16,15,03,22.50
2018,12,16,15,04,24.20
2018,12,16,15,05,22.50
2018,12,16,15,06,20.90
2018,12,16,15,07,22.50
2018,12,16,15,08,24.20
2018,12,16,15,09,24.20
2018,12,16,15,10,24.20
2018,12,16,15,11,24.20
2018,12,16,15,12,24.20
2018,12,16,15,13,24.20
2018,12,16,15,14,22.50
2018,12,16,15,15,22.50
2018,12,16,15,16,20.90
2018,12,16,15,17,20.90
2018,12,16,15,18,19.30
2018,12,16,15,19,19.30
2018,12,16,15,20,19.30
2018,12,16,15,21,19.30
2018,12,16,15,22,20.90
2018,12,16,15,23,20.90
2018,12,16,15,24,20.90
2018,12,16,15,25,19.30
2018,12,16,15,26,19.30
2018,12,16,15,27,19.30
2018,12,16,15,28,20.90
2018,12,16,15,29,20.90
2018,12,16,15,30,20.90
2018,12,16,15,31,20.90
2018,12,16,15,32,19.30
2018,12,16,15,33,17.70
2018,12,16,15,34,19.30
2018,12,16,15,35,22.50
2018,12,16,15,36,24.20
2018,12,16,15,37,24.20
2018,12,16,15,38,22.50
2018,12,16,15,39,22.50
2018,12,16,15,40,24.20
2018,12,16,15,41,24.20
2018,12,16,15,42,27.40
2018,12,16,15,43,29.00
2018,12,16,15,44,29.00
2018,12,16,15,45,29.00
2018,12,16,15,46,29.00
2018,12,16,15,47,30.60
2018,12,16,15,48,32.20
2018,12,16,15,49,35.40
2018,12,16,15,50,33.80
2018,12,16,15,51,37.00
2018,12,16,15,52,32.20
2018,12,16,15,53,27.40
2018,12,16,15,54,29.00
2018,12,16,15,55,30.60
2018,12,16,15,56,29.00
2018,12,16,15,57,30.60
2018,12,16,15,58,33.80
2018,12,16,15,59,41.80
2018,12,16,16,00,38.60
2018,12,16,16,01,37.00
2018,12,16,16,02,33.80
2018,12,16,16,03,37.00
2018,12,16,16,04,38.60
2018,12,16,16,05,35.40
2018,12,16,16,06,35.40
2018,12,16,16,07,32.20
2018,12,16,16,08,30.60
2018,12,16,16,09,27.40
2018,12,16,16,10,24.20
2018,12,16,16,11,22.50
2018,12,16,16,12,25.70
2018,12,16,16,13,24.20
2018,12,16,16,14,27.40
2018,12,16,16,15,27.40
2018,12,16,16,16,24.20
2018,12,16,16,17,35.40
2018,12,16,16,18,33.80
2018,12,16,16,19,30.60
2018,12,16,16,20,30.60
2018,12,16,16,21,27.40
2018,12,16,16,22,32.20
2018,12,16,16,23,29.00
2018,12,16,16,24,25.70
2018,12,16,16,25,25.70
2018,12,16,16,26,27.40
2018,12,16,16,27,25.70
2018,12,16,16,28,22.50
2018,12,16,16,29,20.90
2018,12,16,16,30,20.90
2018,12,16,16,31,22.50
2018,12,16,16,32,24.20
2018,12,16,16,33,29.00
2018,12,16,16,34,33.80
2018,12,16,16,35,33.80
2018,12,16,16,36,32.20
2018,12,16,16,37,35.40
2018,12,16,16,38,35.40
2018,12,16,16,39,37.00
2018,12,16,16,40,33.80
2018,12,16,16,41,33.80
2018,12,16,16,42,33.80
2018,12,16,16,43,30.60
2018,12,16,16,44,27.40
2018,12,16,16,45,25.70
2018,12,16,16,46,27.40
2018,12,16,16,47,25.70
2018,12,16,16,48,19.30
2018,12,16,16,49,19.30
2018,12,16,16,50,19.30
2018,12,16,16,51,17.70
2018,12,16,16,52,19.30
2018,12,16,16,53,17.70
2018,12,16,16,54,19.30
2018,12,16,16,55,22.50
2018,12,16,16,56,22.50
2018,12,16,16,57,25.70
2018,12,16,16,58,24.20
2018,12,16,16,59,25.70
2018,12,16,17,00,22.50
2018,12,16,17,01,20.90
2018,12,16,17,02,19.30
2018,12,16,17,03,17.70
2018,12,16,17,04,17.70
2018,12,16,17,05,17.70
2018,12,16,17,06,16.10
2018,12,16,17,07,16.10
2018,12,16,17,08,16.10
2018,12,16,17,09,14.50
2018,12,16,17,10,14.50
2018,12,16,17,11,14.50
2018,12,16,17,12,14.50
2018,12,16,17,13,14.50
2018,12,16,17,14,12.90
2018,12,16,17,15,12.90
2018,12,16,17,16,11.30
2018,12,16,17,17,11.30
2018,12,16,17,18,9.60
2018,12,16,17,19,8.10
2018,12,16,17,20,9.60
2018,12,16,17,21,9.60
2018,12,16,17,22,8.10
2018,12,16,17,23,8.10
2018,12,16,17,24,8.10
2018,12,16,17,25,8.10
2018,12,16,17,26,9.60
2018,12,16,17,27,12.90
2018,12,16,17,28,14.50
2018,12,16,17,29,12.90
2018,12,16,17,30,12.90
2018,12,16,17,31,12.90
2018,12,16,17,32,12.90
2018,12,16,17,33,12.90
2018,12,16,17,34,11.30